Weather History for Imperial, CA

Change the Weather History Date:

Monday, October 3, 2011

  Actual Average Record
Temperature  
Mean Temperature 85 °F -  
Max Temperature 98 °F 94 °F 108 °F (1952)
Min Temperature 73 °F 66 °F 53 °F (1959)
Cooling Degree Days 20    
Growing Degree Days 35 (Base 50)    
Moisture  
Dew Point 56 °F    
Average Humidity 37    
Maximum Humidity 50    
Minimum Humidity 28    
Precipitation  
Precipitation 0.00 in - - ()
Sea Level Pressure  
Sea Level Pressure 29.77 in    
Wind  
Wind Speed 8 mph (SW)    
Max Wind Speed 26 mph    
Max Gust Speed 40 mph    
Visibility 10 miles    
Events Thunderstorm    
Averages and records for this station are not official NWS values.
T = Trace of Precipitation, MM = Missing Value Source: NWS Daily Summary

Daily Weather History Graph

Daily Weather History Graph

Search for Another Location

Airport:

Trip Planner

Search our weather history database for the weather conditions in past years. The results will help you decide how hot, cold, wet, or windy it might be!

Date:

Astronomy

Oct. 03, 2011 Rise Set
Actual Time 6:37 AM PDT 6:24 PM PDT
Civil Twilight 6:13 AM PDT 6:49 PM PDT
Nautical Twilight 5:44 AM PDT 7:17 PM PDT
Astronomical Twilight 5:15 AM PDT 7:46 PM PDT
Moon 1:22 PM PDT (10/3) 11:48 PM PDT (10/3)
Length of Visible Light 12h 36m
Length of Day
11h 46m
Waxing Crescent, 46% of the Moon is Illuminated
Oct 3
Waxing Crescent
Oct 3
First Quarter
Oct 11
Full
Oct 19
Last Quarter
Oct 26
New

Hourly Weather History & Observations

Time (PDT) Temp. Heat Index Dew Point Humidity Pressure Visibility Wind Dir Wind Speed Gust Speed Precip Events Conditions
12:53 AM 78.1 °F - 55.0 °F 45% 29.80 in 10.0 mi West 5.8 mph - N/A   Clear
1:53 AM 78.1 °F - 54.0 °F 43% 29.81 in 10.0 mi West 8.1 mph - N/A   Clear
2:53 AM 77.0 °F - 54.0 °F 45% 29.79 in 10.0 mi Calm Calm - N/A   Clear
3:53 AM 73.4 °F - 53.6 °F 50% 29.78 in 10.0 mi West 4.6 mph - N/A   Clear
4:53 AM 75.0 °F - 54.0 °F 48% 29.79 in 10.0 mi West 3.5 mph - N/A   Clear
5:53 AM 75.9 °F - 52.0 °F 43% 29.80 in 10.0 mi South 4.6 mph - N/A   Clear
6:53 AM 73.9 °F - 52.0 °F 46% 29.81 in 10.0 mi South 4.6 mph - N/A   Clear
7:53 AM 78.8 °F - 53.6 °F 42% 29.83 in 10.0 mi Calm Calm - N/A   Clear
8:53 AM 84.9 °F 84.4 °F 59.0 °F 41% 29.84 in 10.0 mi Calm Calm - N/A   Clear
9:53 AM 89.1 °F 90.0 °F 63.0 °F 42% 29.84 in 10.0 mi Variable 6.9 mph - N/A   Clear
10:53 AM 91.4 °F 92.1 °F 62.6 °F 38% 29.83 in 10.0 mi Variable 3.5 mph - N/A   Clear
11:53 AM 95.0 °F 95.2 °F 61.0 °F 32% 29.81 in 10.0 mi Calm Calm - N/A   Clear
12:53 PM 97.0 °F 96.5 °F 59.0 °F 28% 29.78 in 10.0 mi East 10.4 mph - N/A   Clear
1:53 PM 97.0 °F 96.5 °F 59.0 °F 28% 29.75 in 10.0 mi ESE 5.8 mph - N/A   Clear
2:45 PM 96.8 °F 98.0 °F 62.6 °F 32% 29.71 in 10.0 mi West 6.9 mph - N/A Thunderstorm Thunderstorm
2:53 PM 97.0 °F 97.4 °F 61.0 °F 30% 29.73 in 10.0 mi WSW 3.5 mph - N/A Thunderstorm Thunderstorm
3:09 PM 89.6 °F 89.5 °F 60.8 °F 38% 29.74 in 2.0 mi East 26.5 mph 40.3 mph N/A Thunderstorm Unknown
3:12 PM 89.6 °F 89.5 °F 60.8 °F 38% 29.75 in 3.0 mi ESE 25.3 mph 40.3 mph N/A Thunderstorm Unknown
3:40 PM 89.6 °F 88.9 °F 59.0 °F 36% 29.73 in 10.0 mi East 17.3 mph - N/A   Partly Cloudy
3:53 PM 91.9 °F 91.5 °F 60.1 °F 34% 29.72 in 10.0 mi East 13.8 mph 23.0 mph N/A   Clear
4:51 PM 91.4 °F 89.9 °F 57.2 °F 31% 29.72 in 10.0 mi South 18.4 mph - N/A   Clear
4:53 PM 91.9 °F 90.6 °F 57.0 °F 31% 29.72 in 10.0 mi South 18.4 mph - N/A   Clear
5:53 PM 91.0 °F 89.2 °F 55.9 °F 30% 29.72 in 10.0 mi SSW 13.8 mph - N/A   Clear
6:53 PM 88.0 °F - 52.0 °F 29% 29.73 in 10.0 mi WSW 13.8 mph - 0.00 in   Clear
7:53 PM 84.9 °F - 52.0 °F 32% 29.74 in 10.0 mi WSW 19.6 mph 26.5 mph N/A   Clear
8:53 PM 82.0 °F - 50.0 °F 33% 29.75 in 10.0 mi WSW 16.1 mph 28.8 mph N/A   Mostly Cloudy
9:53 PM 79.0 °F - 48.9 °F 35% 29.76 in 10.0 mi West 17.3 mph 27.6 mph N/A   Clear
10:53 PM 77.0 °F - 48.0 °F 36% 29.76 in 10.0 mi West 17.3 mph 24.2 mph N/A   Scattered Clouds
11:53 PM 77.0 °F - 48.9 °F 37% 29.77 in 10.0 mi West 16.1 mph 23.0 mph N/A   Clear